User: anonymous   Login
Location: Follega
(52.8850°N, 5.7362°E)
Time: 13:20:54
(UTC+00:00)
Language:

STARLINK-1236 - Orbit

View from above orbital plane
View from above orbital plane
View from above satellite
View from above satellite

Ground track
Ground track

The orbit data is extracted from the following two-line orbital elements,

1 45191U 20012P   20218.91667824 +.00031850 +00000-0 +21955-2 0  9992
2 45191 053.0001 212.4885 0000816 098.5138 040.1774 15.05575876001755
Epoch (UTC): 05 August 2020 22:00:01
Eccentricity: 0.0000816
inclination: 53.0001°
perigee height: 549 km
apogee height: 550 km
right ascension of ascending node: 212.4885°
argument of perigee: 98.5138°
revolutions per day: 15.05575876
mean anomaly at epoch: 40.1774°
orbit number at epoch: 175

The dashed part of the orbit path shows where the satellite is in the earth's shadow,  

DLR